Flag for Germany Weather past 2 weeks in Bitburg, Rhineland-Palatinate, Germany

Now
45 °F

Partly sunny.


Feels Like: 38 °F
Forecast: 31 / 50 °F
Wind: 13 mph from West

Location: Spangdahlem

Current Time: Mar 27, 2015 at 1:31:04 PM

Latest Report: Mar 27, 2015 at 1:02 PM


Visibility: N/A

Pressure: 30.10 "Hg

Humidity: 66%

Dew point: 34 °F

Location of BitburgLocation

Historic Weather in Bitburg — Graph

°F

Bitburg temperature yesterday

Maximum temperature yesterday: 48 °F (at 1:58 PM)
Minimum temperature yesterday: 37 °F (at 7:58 AM)
Average temperature yesterday: 40 °F

Past Weeks' High & Low Weather Summary

 TemperatureHumidityPressure
High64 °F (Mar 18, 2:58 PM)100% (Mar 15, 8:58 AM)30.40 "Hg (Mar 15, 8:58 AM)
Low28 °F (Mar 23, 3:58 AM)32% (Mar 18, 2:58 PM)29.60 "Hg (Mar 25, 3:58 AM)
Average41 °F79%30.08 "Hg
* Reported Mar 12 11:58 AM — Mar 27 11:58 AM, Bitburg, Weather by CustomWeather, © 2015

Note: Actual official high and low records may vary slightly from our data, if they occured in-between our weather recording intervals... More about our weather records

Advertising

Bitburg weather history for previous 24 hours

 ConditionsComfort  
Time TempWeatherWind HumidityBarometerVisibility
11:58 AM
Fri, Mar 27
43 °FBroken clouds.10 mph76%30.09 "HgN/A
10:58 AM40 °FOvercast.13 mph84%30.08 "HgN/A
9:58 AM39 °FOvercast.9 mph87%30.05 "HgN/A
8:58 AM38 °FCloudy.13 mph88%30.09 "HgN/A
8:47 AM37 °FCloudy.12 mph93%30.03 "HgN/A
7:58 AM38 °FMore clouds than sun.8 mph91%30.01 "HgN/A
6:58 AM36 °FPartly sunny.9 mph94%30.02 "HgN/A
6:50 AM36 °FOvercast.7 mph93%29.97 "HgN/A
5:58 AM35 °FPassing clouds.8 mph96%29.96 "HgN/A
4:58 AM37 °FPartly cloudy.7 mph97%29.93 "HgN/A
3:58 AM36 °FPassing clouds.6 mph98%29.91 "HgN/A
2:58 AM37 °FFog.8 mph98%29.89 "Hg6 mi
1:58 AM39 °FClear.8 mph98%29.86 "HgN/A
12:58 AM40 °FLow clouds.7 mph98%29.84 "HgN/A
11:58 PM
Thu, Mar 26
39 °FMostly cloudy.9 mph98%29.83 "HgN/A
10:58 PM39 °FLight rain. Low clouds.9 mph97%29.83 "HgN/A
10:47 PM39 °FLight rain. Low clouds.9 mph93%29.81 "HgN/A
9:58 PM39 °FLow clouds.10 mph93%29.81 "HgN/A
9:45 PM37 °FLight rain. Low clouds.12 mph100%29.80 "HgN/A
9:04 PM37 °FLow clouds.13 mph100%29.80 "HgN/A
8:58 PM37 °FDrizzle. Fog.12 mph100%29.81 "HgN/A
8:03 PM37 °FLight rain. Low clouds.13 mph93%29.78 "HgN/A
7:58 PM38 °FLight rain. Mostly cloudy.10 mph93%29.79 "HgN/A
6:58 PM39 °FLight rain. Passing clouds.14 mph85%29.78 "HgN/A
5:58 PM42 °FPartly sunny.16 mph63%29.76 "HgN/A
5:02 PM41 °FLight rain. Scattered clouds.20 mph70%29.76 "HgN/A
4:58 PM42 °FPassing clouds.18 mph63%29.75 "HgN/A
3:58 PM42 °FPassing clouds.15 mph54%29.75 "HgN/A
2:58 PM45 °FPartly sunny.16 mph53%29.75 "HgN/A
1:58 PM48 °FScattered clouds.17 mph37%29.74 "HgN/A
Weather by CustomWeather, © 2015

See weather overviewHow to use our weather pages